GW3504 Weather Reports


Display with metric or nautical units.
time (UTC)temp
F
wind
direction
speed
MPH
gust
MPH
rain 1hr
in
rain 24hr
in
rain mn
in
humidity
%
barometer
mb
20260505204537 51 360 1.0 10.0 0.00 0.79 0.47 78 1012.5
20260505204027 51 5 2.0 9.0 0.00 0.79 0.47 80 1012.5
20260505203521 51 0 0.0 5.0 0.00 0.79 0.47 82 1012.5
20260505203041 51 0 0.0 5.0 0.00 0.79 0.47 82 1012.5
20260505202523 51 0 0.0 3.0 0.00 0.79 0.47 81 1012.7
20260505202023 51 0 0.0 3.0 0.00 0.79 0.47 81 1012.9
20260505201537 51 0 0.0 3.0 0.00 0.79 0.47 82 1012.7
20260505201021 51 0 0.0 5.0 0.00 0.79 0.47 84 1012.9
20260505200522 50 0 0.0 5.0 0.00 0.79 0.47 82 1012.8
20260505200038 50 33 0.0 4.0 0.00 0.79 0.47 83 1012.9
20260505195528 50 0 0.0 5.0 0.00 0.79 0.47 83 1013.0
20260505195024 50 0 2.0 5.0 0.00 0.79 0.47 83 1013.0
20260505194535 50 0 0.0 5.0 0.00 0.79 0.47 84 1013.0
20260505194024 50 0 0.0 4.0 0.00 0.79 0.47 83 1012.9
20260505193527 50 0 0.0 4.0 0.00 0.79 0.47 85 1013.1
20260505193052 49 35 1.0 5.0 0.00 0.79 0.47 85 1013.1
20260505192524 49 0 1.0 8.0 0.00 0.79 0.47 85 1013.0
20260505192024 49 32 1.0 8.0 0.00 0.79 0.47 85 1013.0
20260505191542 49 27 0.0 5.0 0.01 0.79 0.47 86 1013.0
20260505191025 49 0 0.0 5.0 0.01 0.79 0.47 86 1012.8
20260505190525 49 0 1.0 5.0 0.01 0.79 0.47 87 1012.7
20260505190042 49 0 0.0 1.0 0.01 0.79 0.47 86 1012.7
20260505185523 49 0 0.0 4.0 0.01 0.79 0.47 87 1012.6
20260505185027 49 0 0.0 4.0 0.01 0.79 0.47 87 1012.8
20260505184535 49 65 0.0 4.0 0.01 0.79 0.47 87 1012.8
20260505184025 48 0 0.0 1.0 0.02 0.79 0.47 87 1012.8
20260505183525 48 0 0.0 2.0 0.02 0.79 0.47 87 1013.0
20260505183037 48 0 0.0 2.0 0.02 0.79 0.47 87 1013.0
20260505182523 48 0 0.0 0.0 0.03 0.79 0.47 87 1013.0
20260505182025 48 0 0.0 3.0 0.03 0.79 0.47 87 1013.3
20260505181536 48 0 0.0 4.0 0.04 0.78 0.46 87 1013.3
20260505181024 48 0 0.0 7.0 0.05 0.78 0.46 87 1013.3
20260505180524 48 59 0.0 7.0 0.05 0.78 0.46 87 1013.4
20260505180045 48 12 0.0 6.0 0.05 0.78 0.46 87 1013.4
20260505175528 48 0 0.0 4.0 0.05 0.78 0.46 88 1013.6
20260505175024 48 0 0.0 4.0 0.05 0.78 0.46 88 1013.5
20260505174538 48 38 0.0 4.0 0.05 0.78 0.46 88 1013.8
20260505174025 47 0 0.0 4.0 0.04 0.77 0.45 88 1013.7
20260505173527 48 0 0.0 4.0 0.05 0.77 0.45 88 1013.6
20260505173035 48 0 0.0 0.0 0.05 0.77 0.45 88 1013.8
20260505172524 48 0 0.0 0.0 0.05 0.76 0.44 88 1013.8
20260505172024 47 0 0.0 0.0 0.04 0.75 0.43 88 1013.8
20260505171541 47 0 0.0 1.0 0.03 0.74 0.42 88 1013.6
20260505171025 47 0 0.0 1.0 0.02 0.73 0.41 88 1013.6
20260505170524 47 48 0.0 2.0 0.02 0.73 0.41 88 1013.5
20260505170050 48 0 0.0 2.0 0.02 0.73 0.41 88 1013.5
20260505165523 48 0 0.0 1.0 0.02 0.73 0.41 88 1013.5
20260505165023 47 0 0.0 1.0 0.02 0.73 0.41 88 1013.4
20260505164540 47 0 0.0 2.0 0.02 0.73 0.41 88 1013.6
20260505164024 47 0 0.0 3.0 0.02 0.73 0.41 88 1013.5
20260505163520 47 0 0.0 3.0 0.01 0.72 0.40 88 1013.5
20260505163041 47 0 0.0 2.0 0.02 0.72 0.40 88 1013.4
20260505162523 47 0 0.0 2.0 0.01 0.71 0.39 88 1013.4
20260505162022 47 0 0.0 2.0 0.02 0.71 0.39 87 1013.4
20260505161536 47 0 0.0 3.0 0.02 0.71 0.39 88 1013.5
20260505161023 47 0 0.0 4.0 0.02 0.71 0.39 87 1013.6
20260505160523 47 0 0.0 4.0 0.02 0.71 0.39 87 1013.4
20260505153043 46 0 0.0 5.0 0.05 0.70 0.38 87 1013.5
20260505152520 46 0 0.0 7.0 0.05 0.70 0.38 87 1013.6
20260505152029 46 0 1.0 7.0 0.04 0.69 0.37 87 1013.2
20260505151540 46 0 0.0 5.0 0.04 0.69 0.37 87 1013.5
20260505151021 46 0 0.0 8.0 0.04 0.69 0.37 87 1013.8
20260505150523 46 36 0.0 8.0 0.04 0.69 0.37 87 1013.6
20260505140523 47 0 1.0 7.0 0.01 0.65 0.33 86 1012.2
20260505125024 47 0 0.0 0.0 0.07 0.64 0.32 83 1011.5
20260505124540 48 0 0.0 1.0 0.07 0.64 0.32 81 1011.4
20260505124023 49 0 0.0 5.0 0.06 0.63 0.31 79 1012.0
20260505123524 49 0 1.0 11.0 0.00 0.57 0.25 78 1011.3
20260505123048 49 0 2.0 11.0 0.00 0.57 0.25 78 1012.9
20260505122524 49 284 1.0 6.0 0.01 0.57 0.25 78 1012.1
20260505122024 48 0 1.0 5.0 0.01 0.57 0.25 78 1010.1
20260505121537 48 0 0.0 5.0 0.01 0.57 0.25 79 1010.0
20260505121025 48 13 0.0 5.0 0.01 0.57 0.25 78 1010.0
20260505120527 48 0 0.0 5.0 0.01 0.57 0.25 78 1010.1
20260505120043 48 0 0.0 6.0 0.01 0.57 0.25 78 1010.1
20260505115524 48 0 0.0 6.0 0.02 0.57 0.25 79 1009.9
20260505115024 48 0 0.0 3.0 0.05 0.57 0.25 80 1009.9
20260505114534 48 0 0.0 0.0 0.05 0.57 0.25 80 1010.2
20260505114025 48 0 0.0 1.0 0.05 0.57 0.25 79 1010.6
20260505113524 49 0 0.0 2.0 0.05 0.57 0.25 78 1010.7
20260505113040 49 0 0.0 6.0 0.05 0.57 0.25 77 1010.1
20260505112527 49 15 0.0 6.0 0.04 0.56 0.24 75 1009.8
20260505112024 49 72 0.0 5.0 0.04 0.56 0.24 76 1010.0
20260505111536 49 0 0.0 5.0 0.04 0.56 0.24 75 1009.2
20260505111025 49 34 1.0 12.0 0.04 0.56 0.24 73 1009.7
20260505110525 50 0 2.0 12.0 0.04 0.56 0.24 70 1009.6
20260505102024 52 28 2.0 9.0 0.00 0.52 0.20 61 1008.9
20260505101536 52 30 3.0 9.0 0.00 0.52 0.20 61 1009.0
20260505101027 52 0 3.0 9.0 0.00 0.52 0.20 61 1009.0
20260505100524 52 9 4.0 9.0 0.00 0.52 0.20 62 1009.0
20260505100038 52 19 2.0 9.0 0.00 0.52 0.20 62 1009.0
20260505095524 52 21 2.0 8.0 0.00 0.52 0.20 63 1009.2
20260505095023 52 5 2.0 7.0 0.00 0.52 0.20 63 1009.1
20260505094539 52 52 2.0 8.0 0.00 0.52 0.20 63 1009.6
20260505094025 52 19 2.0 8.0 0.00 0.52 0.20 62 1009.9
20260505093526 52 0 2.0 9.0 0.00 0.52 0.20 62 1010.0
20260505093036 52 36 1.0 9.0 0.00 0.52 0.20 63 1009.8
20260505092525 52 21 3.0 12.0 0.00 0.52 0.20 61 1009.4
20260505092025 52 76 3.0 12.0 0.00 0.52 0.20 63 1009.4
20260505091538 52 14 2.0 11.0 0.00 0.52 0.20 63 1009.4
20260505091027 52 17 2.0 11.0 0.00 0.52 0.20 64 1009.1
20260505090524 52 351 2.0 11.0 0.00 0.52 0.20 65 1009.1
20260505090034 51 40 4.0 7.0 0.00 0.52 0.20 67 1009.2
20260505085526 51 0 1.0 10.0 0.00 0.52 0.20 70 1009.1
20260505085024 51 0 1.0 10.0 0.00 0.52 0.20 70 1008.9
20260505084555 51 15 3.0 10.0 0.00 0.52 0.20 71 1008.6
20260505084025 51 40 3.0 10.0 0.00 0.52 0.20 72 1008.3
20260505083529 51 34 3.0 9.0 0.00 0.52 0.20 72 1008.2
20260505083057 51 9 2.0 13.0 0.00 0.52 0.20 73 1008.0
20260505082525 51 36 2.0 13.0 0.00 0.52 0.20 74 1007.8
20260505082024 50 348 2.0 10.0 0.01 0.52 0.20 76 1007.6
20260505081553 50 46 2.0 9.0 0.02 0.52 0.20 77 1007.2
20260505081025 50 0 1.0 11.0 0.03 0.52 0.20 78 1007.1
20260505080525 50 0 1.0 11.0 0.05 0.52 0.20 79 1007.1
20260505080044 50 36 3.0 11.0 0.06 0.52 0.20 81 1007.0
20260505075524 50 0 0.0 12.0 0.09 0.52 0.20 82 1007.0
20260505075023 50 0 3.0 15.0 0.10 0.52 0.20 82 1007.0
20260505074535 50 40 5.0 15.0 0.11 0.52 0.20 84 1006.9
20260505074024 50 0 5.0 12.0 0.15 0.52 0.20 86 1006.7
20260505073521 50 38 2.0 6.0 0.15 0.52 0.20 85 1007.9
20260505073048 50 0 0.0 1.0 0.16 0.52 0.20 85 1009.5
20260505072523 50 0 0.0 0.0 0.16 0.52 0.20 84 1009.3
20260505072024 51 0 0.0 0.0 0.15 0.51 0.19 83 1008.5
20260505071545 51 0 0.0 4.0 0.14 0.50 0.18 81 1008.6
20260505071023 51 0 0.0 4.0 0.12 0.48 0.16 81 1008.5
20260505070528 52 0 1.0 4.0 0.11 0.47 0.15 79 1008.3
20260505070044 53 68 0.0 11.0 0.09 0.45 0.13 77 1009.0
20260505065523 53 0 0.0 12.0 0.07 0.43 0.11 73 1009.5
20260505065023 54 0 3.0 13.0 0.06 0.42 0.10 69 1009.8
20260505064536 56 35 5.0 14.0 0.05 0.41 0.09 65 1009.5
20260505064026 57 344 2.0 15.0 0.01 0.37 0.05 58 1009.4
20260505063523 58 9 6.0 15.0 0.01 0.37 0.05 55 1008.6
20260505063040 60 0 5.0 20.0 0.00 0.36 0.04 51 1007.8
20260505062521 61 53 7.0 20.0 0.00 0.36 0.04 47 1007.5
20260505062024 61 10 5.0 13.0 0.00 0.36 0.04 46 1007.6
20260505061535 62 19 5.0 15.0 0.00 0.36 0.04 46 1007.7
20260505061024 62 59 4.0 16.0 0.00 0.36 0.04 46 1007.2
20260505060524 62 33 7.0 18.0 0.01 0.36 0.04 46 1007.2
20260505060056 62 19 6.0 18.0 0.03 0.36 0.04 49 1007.0
20260505055527 62 19 6.0 18.0 0.05 0.36 0.04 48 1006.4
20260505055023 62 22 7.0 17.0 0.07 0.36 0.04 52 1006.1
20260505054540 62 28 5.0 13.0 0.21 0.36 0.04 56 1005.9
20260505054027 61 29 5.0 18.0 0.27 0.36 0.04 56 1005.7
20260505053525 61 37 5.0 18.0 0.36 0.36 0.04 58 1005.7
20260505053038 60 32 4.0 13.0 0.36 0.36 0.04 66 1005.8
20260505052523 59 24 5.0 12.0 0.36 0.36 0.04 70 1005.7
20260505052024 58 349 2.0 5.0 0.36 0.36 0.04 80 1005.8
20260505051535 58 0 1.0 5.0 0.36 0.36 0.04 84 1005.5
20260505051022 58 0 0.0 4.0 0.36 0.36 0.04 84 1005.3
20260505050524 58 0 0.0 0.0 0.35 0.35 0.03 83 1005.4
20260505041549 71 26 4.0 11.0 0.00 0.00 0.00 51 1004.3
20260505041023 71 300 4.0 10.0 0.00 0.00 0.00 56 1004.2
20260505040530 71 0 2.0 8.0 0.00 0.00 0.00 62 1004.4
20260505040041 71 0 1.0 9.0 0.00 0.00 0.00 64 1004.5
20260505035527 70 352 2.0 9.0 0.00 0.00 0.00 65 1004.3
20260505035023 70 24 1.0 5.0 0.00 0.00 0.00 68 1004.4
20260505034537 70 11 0.0 3.0 0.00 0.00 0.00 69 1004.3
20260505034027 70 0 0.0 0.0 0.00 0.00 0.00 68 1003.9
20260505033523 70 0 0.0 0.0 0.00 0.00 0.00 68 1003.7
20260505033037 70 0 0.0 0.0 0.00 0.00 0.00 68 1003.6
20260505032523 70 0 0.0 0.0 0.00 0.00 0.00 68 1003.6
20260505032023 71 0 0.0 0.0 0.00 0.00 0.00 68 1003.7
20260505031536 71 0 0.0 0.0 0.00 0.00 0.00 67 1003.6
20260505031024 71 0 0.0 0.0 0.00 0.00 0.00 67 1003.6
20260505030524 71 0 0.0 0.0 0.00 0.00 0.00 66 1003.6
20260505030044 71 0 0.0 0.0 0.00 0.00 0.00 66 1003.6
20260505025526 72 0 0.0 1.0 0.00 0.00 0.00 65 1003.5
20260505025023 72 0 0.0 1.0 0.00 0.00 0.00 65 1003.4
20260505024534 72 0 0.0 1.0 0.00 0.00 0.00 64 1003.3
20260505024023 72 0 0.0 0.0 0.00 0.00 0.00 64 1003.2
20260505023522 72 0 0.0 3.0 0.00 0.00 0.00 64 1003.2
20260505023034 72 0 0.0 4.0 0.00 0.00 0.00 64 1003.2
20260505022524 72 0 0.0 4.0 0.00 0.00 0.00 64 1003.1
20260505022023 72 0 0.0 0.0 0.00 0.00 0.00 64 1003.1
20260505021537 71 0 0.0 0.0 0.00 0.00 0.00 64 1003.0
20260505021021 71 0 0.0 0.0 0.00 0.00 0.00 64 1003.1
20260505020521 71 0 0.0 0.0 0.00 0.00 0.00 64 1002.9
20260505020040 71 0 0.0 0.0 0.00 0.00 0.00 64 1002.9
20260505015524 72 0 0.0 0.0 0.00 0.00 0.00 63 1002.8
20260505015024 72 0 0.0 0.0 0.00 0.00 0.00 61 1002.8
20260505014559 72 0 0.0 0.0 0.00 0.00 0.00 60 1002.7
20260505014024 73 0 0.0 0.0 0.00 0.00 0.00 58 1002.8
20260505013522 73 0 0.0 0.0 0.00 0.00 0.00 57 1002.7
20260505013046 73 0 0.0 0.0 0.00 0.00 0.00 56 1002.7
20260505012527 74 0 0.0 0.0 0.00 0.00 0.00 54 1002.5
20260505012023 74 0 0.0 0.0 0.00 0.00 0.00 55 1002.4
20260505011540 75 0 0.0 0.0 0.00 0.00 0.00 54 1002.2
20260505011025 75 0 0.0 0.0 0.00 0.00 0.00 53 1002.2
20260505010522 75 0 0.0 0.0 0.00 0.00 0.00 52 1002.1
20260505010051 76 0 0.0 0.0 0.00 0.00 0.00 51 1002.1
20260505005525 76 0 0.0 0.0 0.00 0.00 0.00 51 1002.1
20260505005023 76 0 0.0 0.0 0.00 0.00 0.00 50 1002.0
20260505004546 77 0 0.0 0.0 0.00 0.00 0.00 50 1002.1
20260505004025 77 0 0.0 0.0 0.00 0.00 0.00 50 1002.1
20260505003523 77 0 0.0 0.0 0.00 0.00 0.00 48 1002.0
20260505003052 78 0 0.0 0.0 0.00 0.00 0.00 48 1002.0
20260505002523 78 0 0.0 0.0 0.00 0.00 0.00 48 1002.0
20260505002023 78 0 0.0 0.0 0.00 0.00 0.00 47 1001.9
20260505001537 79 0 0.0 0.0 0.00 0.00 0.00 47 1001.9
20260505001024 79 0 0.0 0.0 0.00 0.00 0.00 47 1001.9
20260505000523 80 0 0.0 0.0 0.00 0.00 0.00 46 1002.0
20260505000037 80 0 0.0 0.0 0.00 0.00 0.00 45 1002.0
20260504235523 80 0 0.0 2.0 0.00 0.00 0.00 45 1002.0
20260504235023 80 0 0.0 2.0 0.00 0.00 0.00 46 1002.0
20260504234538 80 0 0.0 0.0 0.00 0.00 0.00 46 1002.0
20260504234021 80 0 0.0 0.0 0.00 0.00 0.00 47 1002.0
20260504233524 80 0 0.0 0.0 0.00 0.00 0.00 46 1002.0
20260504233037 80 0 0.0 3.0 0.00 0.00 0.00 47 1002.0
20260504232527 80 0 0.0 3.0 0.00 0.00 0.00 46 1002.0
20260504232021 80 0 0.0 3.0 0.00 0.00 0.00 45 1002.1
20260504231537 80 0 0.0 1.0 0.00 0.00 0.00 45 1001.9
20260504231022 80 158 0.0 1.0 0.00 0.00 0.00 46 1002.0
20260504230524 80 0 0.0 8.0 0.00 0.00 0.00 44 1002.1
20260504230035 80 0 0.0 8.0 0.00 0.00 0.00 44 1002.1
20260504225523 81 0 0.0 7.0 0.00 0.00 0.00 43 1002.1
20260504225021 81 217 0.0 7.0 0.00 0.00 0.00 43 1002.0
20260504224534 82 0 1.0 9.0 0.00 0.00 0.00 40 1002.1
20260504224023 82 19 2.0 9.0 0.00 0.00 0.00 40 1002.1
20260504223523 83 178 1.0 6.0 0.00 0.00 0.00 41 1002.0
20260504223055 83 0 0.0 5.0 0.00 0.00 0.00 41 1002.0
20260504222523 83 328 1.0 5.0 0.00 0.00 0.00 40 1002.1
20260504222023 82 0 0.0 5.0 0.00 0.00 0.00 39 1002.1
20260504221537 82 0 1.0 5.0 0.00 0.00 0.00 38 1002.2
20260504221024 82 0 1.0 7.0 0.00 0.00 0.00 37 1002.2
20260504220521 83 0 1.0 7.0 0.00 0.00 0.00 36 1002.1
20260504220036 83 225 1.0 6.0 0.00 0.00 0.00 40 1002.2
20260504215522 83 0 1.0 5.0 0.00 0.00 0.00 40 1002.2
20260504215026 82 40 2.0 10.0 0.00 0.00 0.00 41 1002.3
20260504214537 82 292 1.0 10.0 0.00 0.00 0.00 41 1002.3
20260504214027 82 190 3.0 8.0 0.00 0.00 0.00 41 1002.3
20260504213523 82 342 2.0 15.0 0.00 0.00 0.00 41 1002.4
20260504213036 81 308 2.0 15.0 0.00 0.00 0.00 41 1002.4
20260504212523 81 180 1.0 8.0 0.00 0.00 0.00 41 1002.5
20260504212024 81 289 1.0 7.0 0.00 0.00 0.00 42 1002.7
20260504211551 81 0 0.0 9.0 0.00 0.00 0.00 43 1002.7
20260504211023 81 186 3.0 9.0 0.00 0.00 0.00 41 1002.8
20260504210524 82 289 0.0 8.0 0.00 0.00 0.00 41 1002.8
20260504210043 81 267 1.0 8.0 0.00 0.00 0.00 41 1002.7
20260504205523 82 5 1.0 8.0 0.00 0.00 0.00 41 1002.8
20260504205023 82 81 2.0 8.0 0.00 0.00 0.00 41 1002.7